Regional Weather Roundup
Issued by NWS

Home | Current Version | Previous Version | Graphics & Text | Print | Product List | Glossary On
Versions: 1 2 3 4 5 6 7 8 9 10 11 12 13 14 15 16 17 18 19 20 21 22 23 24 25 26 27 28 29 30 31 32 33 34 35 36 37 38 39 40 41 42 43 44 45 46 47 48 49 50
152
ASUS43 KLMK 260510
RWRKY
KENTUCKY REGIONAL WEATHER ROUNDUP
NATIONAL WEATHER SERVICE LOUISVILLE KY
100 AM EDT MON SEP 26 2016

NOTE "FAIR" INDICATES FEW OR NO CLOUDS BELOW 12,000 FEET
WITH NO SIGNIFICANT WEATHER AND/OR OBSTRUCTIONS TO VISIBILITY.

KYZ001>023-026-027-061>063-070>075-260600-
WESTERN AND SOUTH CENTRAL KENTUCKY

CITY           SKY/WX    TMP DP  RH WIND       PRES   REMARKS
PADUCAH        CLEAR     72  67  84 CALM      29.99F
HENDERSON      CLEAR     70  64  83 S5        29.99F
OWENSBORO      NOT AVBL
HOPKINSVILLE   CLEAR     72  67  85 CALM      30.02F
BOWLING GREEN  CLEAR     69  66  90 CALM      30.03S
GLASGOW        CLEAR     66  66 100 CALM      30.03F
$$

KYZ024-025-028>034-038-045-046-053-260600-
NORTH CENTRAL KENTUCKY

CITY           SKY/WX    TMP DP  RH WIND       PRES   REMARKS
LOUISVILLE/SDF PTCLDY    75  66  73 CALM      30.01S
LOUISVILLE/LOU CLEAR     74  66  76 CALM      30.02F
FORT KNOX      CLEAR     69  66  91 CALM      30.01F
$$

KYZ035>037-039>044-047>052-055>060-089>105-260600-
NORTHEAST KENTUCKY

CITY           SKY/WX    TMP DP  RH WIND       PRES   REMARKS
LEXINGTON      CLEAR     73  65  75 S5        30.04F
COVINGTON      CLEAR     67  64  90 S7        30.02F
FRANKFORT      CLEAR     69  65  86 CALM      30.02S
$$

KYZ054-064>069-076>088-106>120-260600-
SOUTHEAST KENTUCKY

CITY           SKY/WX    TMP DP  RH WIND       PRES   REMARKS
JACKSON        CLEAR     73  64  73 SE6       30.06F
LONDON         CLEAR     68  64  87 CALM      30.05F
SOMERSET       CLEAR     66  66 100 CALM      30.06S
MIDDLESBORO    CLOUDY    67  66  97 CALM      30.09S
MONTICELLO     CLEAR     65  63  93 W3        30.06F
$$





USA.gov is the U.S. government's official web portal to all federal, state and local government web resources and services.